Helicity
182 189 217 228 222 247 245 253 279 332 328 280 290 298 277 258 264 249 246 224 200 190 164 131 148 148 145 153 145 108 100 84 85 34 52 56 59 92 70 72 76 75 72
204 202 213 232 249 239 235 243 281 301 329 312 273 237 214 260 246 237 253 263 239 231 181 173 158 161 134 157 168 168 100 67 63 34 26 68 76 110 88 99 82 142 141
168 196 217 241 246 263 262 232 242 285 318 321 263 226 203 238 259 297 258 258 239 234 219 199 172 162 162 154 166 187 160 110 69 62 41 47 84 86 97 102 143 124 105
194 205 220 241 258 269 236 226 232 259 301 317 302 288 263 216 235 215 213 212 252 244 237 211 191 173 150 178 181 178 153 129 119 89 109 68 48 36 51 98 78 118 97
206 217 226 228 242 243 241 232 233 259 288 310 311 273 262 242 229 213 214 228 225 237 223 203 187 178 165 159 178 174 180 156 129 128 114 115 131 123 46 18 41 76 69
230 236 238 237 250 246 243 236 245 276 290 278 284 279 271 257 229 240 216 199 179 166 175 143 127 114 122 136 113 109 129 129 124 122 134 131 124 131 103 41 27 15 8
238 240 242 240 252 262 256 243 252 279 276 272 274 266 245 232 231 213 197 183 167 159 173 147 140 120 116 109 97 107 114 122 114 128 117 123 126 116 95 70 46 -14 -35
267 258 246 246 250 258 262 257 260 273 274 257 255 233 217 189 177 175 152 146 136 141 135 127 122 131 130 122 109 97 107 121 118 149 149 123 135 133 117 90 56 -25 1
269 259 259 262 255 261 270 268 258 251 247 226 205 202 184 174 157 147 126 113 116 113 127 121 121 128 130 136 125 118 150 140 136 146 158 144 139 138 133 120 104 61 -32
274 271 274 275 273 266 256 237 223 215 207 196 178 160 149 136 123 112 119 114 108 116 120 127 129 130 133 139 132 118 146 150 147 142 163 159 154 155 143 145 133 119 96
279 280 276 266 255 236 224 214 204 193 186 169 147 132 122 111 102 94 93 93 96 104 109 119 124 131 133 132 119 118 132 136 139 143 146 157 160 153 141 141 135 138 126
273 270 256 244 237 228 209 200 181 163 143 126 111 99 86 77 78 79 76 75 85 84 85 96 100 104 108 110 110 121 126 132 138 132 134 141 133 145 134 128 143 130 140
272 251 234 226 216 206 192 171 155 143 121 105 92 78 74 71 71 75 70 68 73 75 80 92 109 114 115 114 107 104 116 113 100 112 119 121 113 120 116 119 119 126 122
207 198 198 201 192 182 168 149 129 109 92 82 78 74 76 73 64 61 75 88 95 104 113 108 111 117 115 108 116 129 119 97 107 103 116 118 116 113 123 107 102 104 117
221 228 265 237 190 167 143 117 94 81 72 78 78 76 73 79 90 93 104 104 103 100 93 100 106 109 107 98 117 108 101 93 90 98 108 104 108 123 115 116 125 114 114
304 238 197 169 144 117 96 77 78 81 70 82 88 92 94 94 89 82 83 90 86 84 84 89 88 100 96 93 107 131 105 79 86 104 103 97 103 98 122 123 112 110 140
138 141 144 137 114 99 82 76 80 84 88 93 87 80 75 75 79 81 85 86 92 91 93 93 93 97 86 83 96 112 120 89 93 95 104 114 99 110 97 92 101 121 111
132 130 123 118 107 85 69 76 79 78 83 86 77 80 81 79 78 80 78 80 85 82 87 84 76 76 77 69 95 91 126 101 88 82 85 89 94 91 83 102 115 80 80
135 124 115 102 88 67 65 69 75 69 87 88 80 80 81 86 90 89 87 89 95 92 88 82 78 75 82 67 80 105 113 100 89 88 94 98 87 61 54 107 105 108 117
122 103 83 77 76 58 58 70 68 74 89 78 75 72 74 75 80 82 87 91 96 87 93 85 83 69 83 72 73 88 101 101 105 94 83 61 62 38 69 89 99 123 111
85 72 72 69 60 58 65 71 71 84 81 77 81 84 87 89 94 97 102 108 109 110 115 111 111 102 86 85 61 66 96 100 104 97 98 86 55 46 38 53 112 90 104
71 62 66 70 70 65 67 76 87 105 105 110 104 103 109 115 117 111 116 119 132 142 151 155 150 128 108 74 74 68 67 63 104 122 109 95 33 24 24 64 150 121 120
73 72 82 92 100 95 81 82 108 106 109 108 106 112 117 114 120 123 126 154 152 176 168 165 160 147 114 108 68 67 66 70 106 117 93 38 26 44 120 96 94 84 131
87 77 79 78 88 86 74 86 91 107 109 110 114 119 125 126 123 139 153 163 162 170 170 162 150 143 132 122 118 122 122 88 103 62 75 67 68 69 105 92 122 128 101
50 48 50 59 71 78 79 94 88 107 116 127 131 137 143 140 145 147 151 152 150 139 151 159 171 180 186 174 99 84 136 162 117 86 166 144 163 156 166 159 137 110 76
39 43 41 46 53 64 71 95 106 108 115 119 118 117 118 130 132 135 145 97 81 82 87 85 110 129 64 20 24 30 32 23 32 102 157 192 200 183 165 132 92 72 60
Wind_Speed
36 35 36 38 38 37 37 37 35 35 33 31 30 28 27 28 30 32 36 37 39 40 40 39 41 41 40 41 43 42 42 44 50 45 49 48 38 36 44 41 41 40 41
37 36 35 36 36 35 34 33 33 32 31 30 29 27 26 27 29 32 35 38 40 41 41 41 42 43 42 43 45 45 43 44 47 47 47 45 42 41 45 44 38 38 47
38 36 35 34 33 32 32 31 31 29 29 28 26 24 24 27 30 34 35 39 41 42 43 44 44 44 45 46 47 48 48 49 46 47 46 49 48 58 40 44 46 50 51
34 34 34 32 31 30 30 29 29 28 28 27 24 23 24 26 31 33 35 38 42 43 45 45 46 46 47 47 48 49 49 49 52 49 51 49 50 54 58 50 55 56 58
33 32 31 30 29 28 28 28 27 27 27 27 26 25 26 28 31 33 35 38 42 44 46 47 48 48 48 48 49 50 50 50 50 52 55 53 54 54 58 68 62 68 61
32 30 29 27 27 27 27 26 26 27 28 27 27 27 28 30 32 36 37 40 42 44 46 46 47 47 48 48 48 48 48 49 48 49 51 53 55 63 62 67 73 73 65
30 29 28 28 27 26 27 26 26 26 28 28 28 29 29 31 33 35 38 39 42 45 48 48 49 49 50 50 49 49 50 51 50 52 52 52 54 57 61 67 73 71 72
26 27 26 26 26 25 26 26 26 27 28 28 29 30 31 32 34 37 38 41 43 46 49 49 50 52 52 53 52 51 52 53 53 55 56 56 59 60 63 67 75 83 74
24 23 23 24 25 25 26 27 27 27 29 29 30 32 33 35 37 39 41 43 46 48 51 52 53 54 55 56 56 55 58 58 58 59 61 61 63 64 66 68 70 75 86
23 23 24 24 25 25 26 26 27 28 30 31 33 34 36 38 39 41 44 47 49 51 53 55 57 58 59 60 60 59 61 62 62 63 65 66 67 69 69 72 73 74 81
23 23 23 24 24 24 26 27 28 30 32 34 35 36 39 41 43 45 48 50 52 55 56 59 61 62 64 64 63 64 65 66 67 67 69 71 73 75 75 75 76 78 81
21 21 22 24 25 26 28 30 30 32 34 36 38 40 41 43 46 49 51 53 57 58 60 62 64 65 66 67 67 68 69 71 73 73 74 77 78 80 79 80 82 82 85
20 21 22 24 25 26 28 30 32 34 36 38 41 43 46 49 52 55 57 58 60 62 63 65 67 68 69 69 69 71 73 74 73 76 79 82 82 84 84 85 85 86 86
17 18 21 24 26 28 30 32 35 36 39 42 45 48 52 54 56 58 60 61 63 64 66 67 69 70 71 70 72 75 75 74 76 77 80 82 83 85 87 87 87 88 95
18 19 20 22 24 27 30 33 37 40 43 48 52 55 56 57 58 59 62 64 65 67 68 70 72 73 73 72 77 77 78 77 77 79 81 80 82 84 83 86 90 93 96
17 15 15 19 23 27 32 36 41 45 49 53 56 57 59 61 62 62 64 67 69 70 71 75 77 79 75 77 79 81 83 80 82 87 86 82 83 82 84 85 85 86 94
15 16 21 27 31 35 39 44 47 50 53 56 59 61 61 64 66 67 69 73 75 75 79 80 81 83 81 82 83 85 84 83 86 87 88 87 84 87 86 87 87 88 88
17 21 26 31 35 39 43 47 50 53 55 58 61 63 65 68 69 71 73 76 77 80 82 83 83 83 82 83 86 85 86 87 86 85 86 88 88 86 87 88 89 87 89
18 20 27 33 39 43 45 48 53 56 60 64 67 68 69 72 74 77 79 80 82 83 84 83 84 84 85 85 85 87 88 87 85 84 83 83 84 84 83 88 90 92 91
19 25 31 37 42 46 47 52 59 62 66 68 69 70 71 74 77 79 81 81 82 85 84 86 84 84 87 85 88 87 86 88 86 83 82 80 81 79 83 84 85 86 83
25 30 35 41 46 49 51 59 64 69 70 70 72 73 74 77 80 82 82 84 86 87 88 90 88 86 85 86 86 85 83 83 84 83 82 77 78 80 79 79 72 77 79
30 35 41 47 51 53 58 67 72 72 73 74 77 80 81 82 83 85 87 87 88 92 93 93 93 88 85 84 84 83 80 78 82 83 79 76 75 75 75 76 72 78 80
37 42 48 55 58 61 63 71 73 75 77 79 82 84 85 85 85 88 89 90 87 89 95 95 96 94 84 81 81 81 77 79 81 78 74 72 73 74 72 72 72 73 75
44 49 55 60 65 65 67 69 75 77 80 84 86 86 87 88 85 84 85 88 91 92 93 93 93 91 87 82 76 74 75 77 76 71 67 69 70 71 71 66 68 70 74
48 51 57 62 67 70 73 75 77 79 83 85 86 87 87 88 89 86 86 88 83 83 89 87 86 88 88 82 76 75 71 68 65 66 70 72 71 67 69 70 69 72 78
52 57 61 65 71 74 77 78 77 77 81 88 88 88 90 89 89 90 91 81 85 86 86 87 88 83 79 78 76 74 73 72 75 76 71 67 65 66 65 69 75 76 81
Wind_Direction
286 294 297 298 301 307 306 304 300 296 293 289 291 302 315 322 328 336 338 339 338 337 338 338 338 335 335 331 328 321 320 322 321 317 312 309 318 325 324 328 321 314 316
282 288 295 299 301 304 308 309 307 305 300 299 297 303 308 324 330 334 338 338 336 335 335 333 331 331 329 327 326 324 319 321 325 317 315 312 314 315 318 321 326 325 317
278 283 289 297 301 304 308 312 313 313 311 308 306 309 315 319 324 328 330 335 338 337 336 335 333 331 329 324 324 322 321 314 318 323 318 309 305 306 313 317 318 317 318
277 281 285 292 299 304 309 314 319 320 320 320 320 321 319 318 321 324 329 332 337 336 336 335 334 330 328 327 323 323 321 319 314 313 315 314 312 305 301 306 308 311 311
273 278 283 290 297 304 310 313 320 324 325 327 326 322 323 323 324 325 328 331 333 335 334 334 334 333 331 329 327 326 324 323 319 317 312 310 309 311 304 299 304 304 307
268 275 282 291 296 302 308 314 319 323 327 329 331 332 329 326 325 326 326 327 330 333 335 336 337 337 336 334 333 332 331 329 328 324 321 317 311 306 306 301 301 302 306
264 270 276 283 292 299 304 310 316 321 325 329 332 332 334 333 332 330 330 330 330 331 332 334 334 334 334 333 333 332 331 329 328 326 323 322 319 316 311 306 303 303 304
263 269 276 282 289 297 303 308 313 318 322 327 330 333 334 334 333 333 332 332 331 331 331 331 332 331 331 330 329 329 328 326 325 324 322 319 318 316 314 310 306 301 302
258 266 276 282 288 295 301 306 310 314 319 323 327 330 332 333 331 331 331 330 330 328 328 329 328 328 328 327 326 325 324 323 322 321 320 318 316 315 313 311 309 305 298
256 265 273 280 287 295 302 307 311 314 317 320 322 325 327 329 329 329 328 328 327 327 326 326 326 325 325 324 323 322 322 320 319 318 317 316 315 313 312 311 309 306 301
253 263 273 282 290 298 302 307 310 313 316 319 321 322 323 325 327 327 326 326 326 325 325 324 323 322 321 321 320 319 318 317 316 316 315 313 313 311 311 310 308 306 303
254 264 273 281 288 294 298 303 310 313 315 318 319 321 322 323 323 324 324 324 323 323 322 322 321 321 320 319 318 316 316 315 313 313 312 311 311 310 309 308 306 304 304
255 265 274 282 290 296 301 305 310 313 315 317 318 318 319 319 319 320 320 320 320 320 321 320 320 319 318 317 316 315 314 313 313 312 311 310 309 307 307 306 304 304 303
251 266 276 284 291 297 301 305 308 313 314 316 316 316 317 317 317 318 319 319 320 319 320 319 319 318 317 316 316 314 313 312 312 312 311 310 308 307 306 305 304 303 301
254 269 280 290 298 302 306 308 310 312 314 313 313 313 315 316 317 317 318 318 318 318 318 318 318 317 316 315 314 313 312 312 311 312 311 310 309 308 307 306 304 302 301
255 267 285 298 304 308 309 311 311 312 313 313 313 314 314 314 314 316 316 316 316 317 316 315 314 314 315 314 313 312 310 309 309 308 309 310 309 308 308 307 306 304 302
246 265 286 297 304 307 309 309 311 313 312 312 312 313 313 313 313 314 313 313 313 314 313 313 313 312 312 311 311 310 309 308 307 307 307 307 307 307 306 305 304 304 304
266 279 292 301 307 310 311 312 313 313 313 313 313 313 313 312 312 312 312 312 312 312 312 311 311 311 311 311 310 309 309 307 306 306 306 305 305 305 305 304 303 304 304
286 295 303 308 311 312 314 313 313 313 312 312 312 312 313 312 311 310 310 311 311 311 310 311 310 310 310 310 310 309 308 306 305 305 305 305 304 305 305 304 304 304 304
306 307 312 314 314 314 315 314 313 313 312 313 313 313 312 311 310 310 310 310 309 309 309 309 309 309 308 309 308 308 306 304 304 305 305 305 304 305 306 305 304 304 307
315 317 317 316 316 317 317 315 314 313 314 314 314 313 312 311 310 309 309 309 308 308 307 307 307 307 307 307 307 306 304 303 303 303 304 304 304 304 304 305 305 306 309
321 321 319 318 319 320 319 316 315 316 317 316 314 313 312 312 311 309 309 308 308 307 306 306 306 307 307 307 306 305 303 302 301 302 303 303 303 303 304 305 307 308 308
323 325 323 322 322 322 321 318 318 319 317 316 314 313 313 312 311 310 309 308 308 306 305 305 304 305 307 306 306 305 303 302 301 302 301 301 301 302 305 306 307 308 308
327 327 326 324 323 324 323 321 320 319 318 316 315 314 313 312 312 310 309 308 306 305 305 304 304 305 305 305 306 305 305 303 302 300 300 302 302 302 304 304 305 306 307
332 332 330 328 326 326 324 323 322 320 318 317 316 315 314 313 312 311 310 308 308 306 305 304 304 304 303 304 304 304 303 303 301 298 299 299 300 300 301 302 304 306 307
336 334 331 329 327 327 325 325 325 324 321 318 318 317 315 315 313 312 311 311 309 308 306 305 304 304 301 302 301 300 299 299 299 300 299 298 299 300 302 303 304 306 306